User: anonymous   Login
Location: Yellowknife
(62.4500°N, 114.3500°W)
Time: 00:52:53
(UTC-07:00)
Language:

Hubble Space Telescope - Orbit

View from above orbital plane
View from above orbital plane
View from above satellite
View from above satellite

Ground track
Ground track

The orbit data is extracted from the following two-line orbital elements,

1 20580U 90037B   23342.94974098  .00003442  00000-0  16885-3 0  9992
2 20580  28.4671 183.6761 0002790 106.0720  36.0897 15.15143436647970
Epoch (UTC): 08 December 2023 22:47:37
Eccentricity: 0.0002790
inclination: 28.4671°
perigee height: 518 km
apogee height: 522 km
right ascension of ascending node: 183.6761°
argument of perigee: 106.0720°
revolutions per day: 15.15143436
mean anomaly at epoch: 36.0897°
orbit number at epoch: 64797

The dashed part of the orbit path shows where the satellite is in the earth's shadow,  

DLR